DECAYED

STARLINK-2051, 47661 (Decayed)

Orbit data source: Space-Track

STARLINK-2051, 47661 was a payload satellite owned by SpaceX/Seattle (US) in LEO that was launched on Tue, 16 Feb 2021 UTC via an FALCON 9 launch vehicle from the Air Force Eastern Test Range (AFETR). Payload-class satellites include a variety of spacecraft equipped with specific instruments for various scientific and technological missions. These include communications satellites like Starlink; space stations such as the ISS; scientific satellites like the Hubble; Earth observation satellites from companies like Planet Labs, Umbra, and HawkEye 360; GPS; miniature CubeSats for education and research; and military/defense satellites.

Not visible in the next 10 days
Identifier
47661, 2021-012AT
Orbit
Decayed
Country
Flag of USUS
Related business
Manufacturer
SpaceX/Seattle
Mission
Decayed Commercial Communications
Bus & Motor
STARLINK, Unknown motor
Mass
260 kg wet, ~248 kg dry
Launch date (UTC)
2021-02-16 (5 years ago)
Launch vehicle
FALCON 9
Launch site
Air Force Eastern Test Range (AFETR)
Object type
Payload
Rocket body
Debris
Shape & HBR
Box + 1 Pan, 10.1 m
Radar Cross Section
13.562 m², Large (>1 m²)

Expand to show TLE details & history
Last TLE update: 10 months ago

TLE from 10 months ago
0 STARLINK-2051
1 47661U 21012AT  25031.98719416  .22395037  12487-4  44819-3 0  9992
2 47661  53.0290  25.2619 0005099 220.1207 244.9915 16.46855186219373
Epoch: 2025-01-31T23:41Z
TLE epoch observation values (Epoch: 2025-01-31T23:41:33.575Z)
Latitude
50.64574°
Longitude
12.55906°
Altitude
154.94 km
Speed
7.819 km/s
True Right ascension
09h 17m 33s
True Declination
50° 27' 41"
Sunlit
Object was in full shadow at epoch
Visualization orbit readout
Latitude
Unknown
Longitude
Unknown
Altitude
Unknown
Speed
Unknown
Apparent Right ascension
Unknown
Apparent Declination
Unknown
Sunlit
N/A
Visualization observer readout
Local Sidereal Time
03:29:31
Azimuth
Unknown
Elevation
Unknown
Doppler factor
Unknown
Orbital elements
Apogee altitude
151.249 km
Perigee altitude
144.594 km
Semi-major axis
6,526.058 km
Eccentricity
0.00051
Inclination
53.029°
RAAN
25.2619°
Arg. of periapsis
220.1207°
True anomaly
244.93856°
Mean anomaly
244.9915°
Eccentric anomaly
244.96503°
Mean motion
4.11687 °/min
Orbital period
87.45 mins
BSTAR
0.00044819
Loading maneuver chart data...
Computing Atmospheric mass density...
Loading historical data...
Loading historical data...
Loading historical data...
Loading historical data...
Loading historical data...
Loading historical data...
Loading historical data...

Documentation

Showing up to 5 results
|